Tracking 30106 objects as of 24-Jan-2025
HD Live streaming from Space Station
objects crossing your sky now

ARIANE 5 DEB (SYLDA)

Track ARIANE 5 DEB (SYLDA) now!


NORAD ID: 44037
Int'l Code: 2019-007D
Perigee: 237.5 km
Apogee: 33,946.5 km
Inclination: 3.1 °
Period: 596.1 minutes
Semi major axis: 23463 km
RCS: Unknown
Launch date: February 5, 2019
Source: France (FR)
Launch site: FRENCH GUIANA (FRGUI)

Note: This is SATELLITE DEBRIS
Your satellite tracking list
Your tracking list is empty




NASA's NSSDC Master Catalog

Two Line Element Set (TLE):
1 44037U 19007D   25023.25699605  .00015210  00000-0  26325-2 0  9998
2 44037   3.0679  57.9939 7183432 233.5640  37.4494  2.41561024 50582
Source of the keplerian elements: AFSPC